TIME,DELAY(SENSOR),PRES,OXYGEN,RAWTEMP,T(OPTODE),TCPHASE,FLUOR,BETA(BETA700),BETA(BETA412),BETA(BETA440),CDOM,C(CSC),ED(ED412.40),ED(ED444.00),ED(ED489.70),ED(ED554.30),LU(LU411.80),LU(LU443.40),LU(LU489.60),LU(LU554.10),COMP,TILTX,TILTY,CHECK
1352604732,5809,876.6699829101562000,45.0732383728027340,663.5786132812500000,4.5100898742675780,54.2867202758789060,52,103,87,79,80,15201,2147759771,2147423104,2148009334,2147874587,2147638619,2147055899,2148260150,2147197147,393,4,13,27377
1352608328,5812,964.5800170898438000,48.1776390075683600,669.5911254882812000,4.3117032051086430,53.9173889160156250,53,99,89,79,81,15207,2147754934,2147420589,2148010697,2147874432,2147637750,2147056786,2148258834,2147193005,605,4,13,13451
1352611928,5808,978.6099853515625000,47.9130897521972660,669.7888183593750000,4.3051757812500000,53.9582901000976560,53,99,84,78,81,15205,2147758436,2147419574,2148007314,2147873609,2147646445,2147057956,2148262226,2147194377,3371,4,13,58383
1352615528,5809,980.6400146484375000,47.6863517761230500,669.7249755859375000,4.3072800636291500,53.9913597106933600,52,100,86,78,81,15202,2147755556,2147418642,2148007753,2147872402,2147641581,2147056914,2148260443,2147199104,76,5,13,9386
1352619128,5812,983.7800292968750000,47.6640014648437500,671.1547241210938000,4.2600479125976560,54.0092582702636700,52,99,86,78,81,15202,2147758162,2147419840,2148007314,2147873837,2147639707,2147052361,2148265417,2147196105,3530,4,13,50863
1352622728,5807,988.9400024414062000,47.4114608764648440,670.8370971679688000,4.2705402374267580,54.0398406982421900,52,100,88,79,81,15203,2147759981,2147421056,2148005376,2147873782,2147643803,2147059620,2148263460,2147199579,244,4,13,64467
1352626328,5811,989.6599731445312000,47.1028594970703100,670.6021118164062000,4.2783050537109375,54.0805511474609400,52,102,86,80,80,15197,2147758299,2147423990,2148006345,2147873746,2147643904,2147058861,2148264310,2147198573,465,4,13,50437
1352629928,5808,988.4799804687500000,47.5143699645996100,671.8408203125000000,4.2373700141906740,54.0429191589355500,52,98,87,78,81,15202,2147756123,2147420909,2148007890,2147873380,2147641462,2147056795,2148262235,2147193261,151,4,13,49181
1352633528,5807,989.7399902343750000,47.5225715637207000,672.2164916992188000,4.2249507904052730,54.0397911071777340,54,101,86,79,81,15202,2147756800,2147420644,2148006500,2147874230,2147643611,2147054921,2148260864,2147196571,3453,4,13,10677
1352637128,5808,992.6400146484375000,47.3536109924316400,671.4630737304688000,4.2498531341552730,54.0606193542480500,52,100,88,79,81,15199,2147759341,2147420800,2148010825,2147872740,2147642102,2147057993,2148261750,2147196260,549,4,13,28744
1352640728,5805,990.1300048828125000,47.6046905517578100,671.9821777343750000,4.2326951026916500,54.0296401977539060,53,99,87,79,81,15202,2147757595,2147421366,2148012480,2147873280,2147643291,2147057398,2148262912,2147194624,3529,4,13,63680
1352644328,5809,987.3599853515625000,47.8591918945312500,672.7399902343750000,4.2076439857482910,54.0027809143066400,52,99,88,79,80,15188,2147754998,2147420370,2148009856,2147876077,2147644004,2147057728,2148260342,2147197165,248,5,13,6557
1352647928,5810,992.7800292968750000,48.0990600585937500,672.9191894531250000,4.2017168998718260,53.9725799560546900,52,98,86,78,81,15190,2147759140,2147419803,2148008192,2147874505,2147641078,2147054336,2148259904,2147193590,291,4,13,22289
1352651528,5807,993.6799926757812000,47.8131484985351560,672.9271240234375000,4.2014579772949220,54.0085105895996100,53,98,88,80,81,15190,2147758473,2147420224,2148008640,2147873124,2147645376,2147055780,2148262244,2147196361,3373,4,13,35020
1352655128,5807,1000.7800292968750000,47.6701889038085940,672.0205078125000000,4.2314300537109375,54.0230903625488300,52,100,86,80,82,15189,2147757074,2147421101,2148008566,2147873682,2147638948,2147054857,2148262637,2147194980,3492,4,13,33552
1352658728,5808,993.6900024414062000,47.4360084533691400,672.3518066406250000,4.2204780578613280,54.0598411560058600,53,98,88,79,82,15187,2147755419,2147421284,2148010148,2147874057,2147642998,2147060516,2148264493,2147196013,86,5,13,59393
1352662328,5807,993.8699951171875000,47.8828506469726560,672.6583862304688000,4.2103400230407715,53.9995384216308600,53,98,88,79,81,15188,2147756827,2147421412,2148008091,2147873609,2147643245,2147052754,2148261705,2147194550,3595,4,13,28759
1352665928,5810,993.4899902343750000,48.0563316345214840,673.8980712890625000,4.1693401336669920,53.9929389953613300,54,99,89,78,80,15182,2147758884,2147419126,2148008530,2147873289,2147642304,2147056329,2148261760,2147195200,3544,4,13,62512
1352669528,5807,994.5000000000000000,48.3518295288085940,674.4675903320312000,4.1505031585693360,53.9551811218261700,52,97,85,79,80,15185,2147757312,2147422418,2148009106,2147873481,2147641590,2147056896,2148265417,2147201078,3571,4,13,65190
1352673128,5805,990.3400268554688000,47.7645797729492200,674.5491943359375000,4.1478018760681150,54.0402183532714840,53,96,88,79,80,15186,2147760301,2147419081,2148010304,2147875748,2147641161,2147052882,2148256000,2147196260,141,4,13,54591
1352676728,5807,986.1199951171875000,48.1739997863769500,674.9506835937500000,4.1345157623291020,53.9833793640136700,51,100,88,81,80,15185,2147757833,2147421485,2148009664,2147871497,2147643410,2147051584,2148264201,2147196050,36,5,13,36233
1352680328,5808,991.3900146484375000,48.4397697448730500,674.5482788085938000,4.1478309631347660,53.9406585693359400,53,98,90,79,81,15184,2147757494,2147420726,2148011840,2147875062,2147643721,2147052854,2148255168,2147196086,3471,4,13,7429
1352683928,5807,991.3599853515625000,48.3379211425781250,674.5435791015625000,4.1479887962341310,53.9554100036621100,52,98,87,79,81,15183,2147756123,2147419648,2148009673,2147869851,2147641645,2147058395,2148264850,2147198299,77,5,13,6561
1352687528,5809,987.3300170898438000,48.0940208435058600,674.4774780273438000,4.1501750946044920,53.9934082031250000,53,99,90,79,81,15186,2147755584,2147421412,2148008237,2147873856,2147643172,2147059712,2148260873,2147197467,601,5,13,58693
1352691128,5809,997.7500000000000000,47.7387390136718750,674.5328979492188000,4.1483421325683590,54.0409507751464840,52,98,86,79,82,15182,2147756745,2147418870,2148008685,2147872640,2147642477,2147052260,2148266459,2147193444,111,4,13,26006
1352694728,5808,999.1199951171875000,47.6099510192871100,673.1049804687500000,4.1955738067626950,54.0408592224121100,53,100,87,80,82,15184,2147756864,2147418816,2148005769,2147874953,2147641563,2147053851,2148258139,2147191643,3487,4,13,50635
1352698328,5807,998.4699707031250000,47.6073913574218750,673.0455932617188000,4.1975359916687010,54.0430793762207000,53,100,90,80,80,15182,2147752256,2147421330,2148007561,2147872630,2147643858,2147057773,2148260361,2147193782,65,4,13,24494
1352701928,5810,1006.3400268554688000,47.1002082824707000,672.5681152343750000,4.2133259773254395,54.1064796447753900,53,101,88,79,83,15180,2147756306,2147422546,2148010843,2147871890,2147643675,2147058669,2148261860,2147194843,118,4,13,29410
1352705528,5808,1004.5100097656250000,46.4326782226562500,671.2144165039062000,4.2580738067626950,54.1877593994140600,53,99,89,78,81,15178,2147758089,2147420964,2148012544,2147873289,2147642441,2147057462,2148263122,2147196379,191,4,13,19664
1352709128,5808,997.0100097656250000,46.7125205993652340,672.4649047851562000,4.2167382240295410,54.1583709716796900,53,97,89,80,80,15180,2147756169,2147421577,2148007808,2147874377,2147640429,2147058148,2148256832,2147194788,209,4,13,7581
1352712728,5807,997.9000244140625000,47.1875000000000000,672.9083251953125000,4.2020778656005860,54.0967712402343750,52,100,87,80,81,15178,2147758884,2147421312,2148007387,2147874989,2147643081,2147053696,2148263533,2147195702,318,4,13,616
1352716328,5809,1000.0599975585938000,47.5369606018066400,672.6760864257812000,4.2097530364990230,54.0492591857910160,53,99,87,79,82,15179,2147760329,2147420608,2148007872,2147875867,2147642276,2147061741,2148259977,2147196379,2863,4,13,931
1352719928,5809,1013.4199829101562000,47.9234390258789060,672.3325195312500000,4.2211151123046875,53.9879684448242200,52,101,91,80,81,15178,2147755574,2147420224,2148009389,2147873636,2147641133,2147054162,2148260498,2147192630,2849,4,13,12560
1352723528,5810,1002.9600219726562000,47.3555603027343750,672.9411010742188000,4.2009930610656740,54.0770301818847660,52,99,87,79,81,15179,2147757860,2147421028,2148007762,2147875812,2147641773,2147057115,2148260077,2147195565,3325,4,13,18912
1352727128,5810,1000.4500122070312000,47.3966102600097660,672.9384765625000000,4.2010798454284670,54.0717201232910160,53,102,88,78,81,15176,2147759369,2147417974,2148009700,2147875291,2147643584,2147056310,2148262006,2147198025,145,4,13,48941
1352730728,5809,996.5300292968750000,47.6198616027832000,674.4658203125000000,4.1505618095397950,54.0583305358886700,52,97,89,78,80,15174,2147759213,2147421357,2148009709,2147876205,2147642605,2147055094,2148258358,2147195309,49,5,13,34266
1352734328,5809,995.9000244140625000,47.5589981079101560,674.8544921875000000,4.1377010345458980,54.0710716247558600,52,98,89,80,80,15170,2147757266,2147421760,2148008228,2147873746,2147642779,2147057984,2148266221,2147195986,36,5,13,43188
1352737928,5811,998.2100219726562000,47.9429817199707000,674.6818847656250000,4.1434102058410645,54.0131492614746100,53,109,88,79,82,15169,2147757668,2147424000,2148007862,2147871798,2147642715,2147054948,2148264877,2147197321,59,5,13,28484
1352741528,5810,998.0599975585938000,48.3222312927246100,674.5471191406250000,4.1478729248046875,53.9633293151855500,52,100,84,79,82,15166,2147759661,2147420800,2148010331,2147872237,2147643712,2147051401,2148262281,2147194962,205,5,13,59317
1352745128,5810,1000.6199951171875000,48.3059310913085940,674.5805053710938000,4.1467671394348145,53.9615211486816400,52,97,88,79,82,15172,2147759259,2147420196,2148009005,2147871771,2147641206,2147054107,2148261211,2147197504,219,4,13,11753
1352748728,5808,1000.5800170898438000,47.8962516784668000,673.6190185546875000,4.1785759925842285,54.0101814270019500,54,99,87,79,80,15173,2147758052,2147419803,2148010998,2147875300,2147642541,2147056868,2148260406,2147197138,164,4,13,25793
1352749556,5806,998.3300170898438000,47.6416206359863300,673.7493286132812000,4.1742630004882810,54.0468101501464840,52,99,91,79,81,15192,2147758555,2147419099,2148011876,2147874459,2147641965,2147058020,2148260891,2147195474,3040,4,13,53865
